This is the latest recevied weather packets stored in our database for station/object N4DLW-3. If no packets are shown the sender has not sent any weather packets the latest 10 day(s).
| Time | Temp. | Humidity | Pressure | Rain* | Wind** | Luminosity | Snow |
|---|---|---|---|---|---|---|---|
| 1777913677 | 30.56° C | 40% | 1015.9 hPa | 0 mm | - | - | - |
| 1777913370 | 30.56° C | 40% | 1016 hPa | 0 mm | - | - | - |
| 1777913078 | 30.56° C | 41% | 1016.1 hPa | 0 mm | - | - | - |
| 1777912772 | 30.56° C | 43% | 1016.2 hPa | 0 mm | - | - | - |
| 1777912477 | 30° C | 43% | 1016.2 hPa | 0 mm | - | - | - |
| 1777912164 | 30.56° C | 41% | 1016.2 hPa | 0 mm | - | - | - |
| 1777911878 | 30.56° C | 40% | 1016.3 hPa | 0 mm | - | - | - |
| 1777911565 | 30.56° C | 43% | 1016.4 hPa | 0 mm | - | - | - |
| 1777911282 | 30° C | 41% | 1016.5 hPa | 0 mm | - | - | - |
| 1777910968 | 30° C | 42% | 1016.5 hPa | 0 mm | - | - | - |
| 1777910682 | 29.44° C | 43% | 1016.6 hPa | 0 mm | - | - | - |
| 1777910369 | 29.44° C | 42% | 1016.7 hPa | 0 mm | - | - | - |
| 1777910083 | 29.44° C | 43% | 1016.7 hPa | 0 mm | - | - | - |
| 1777909774 | 28.89° C | 42% | 1016.8 hPa | 0 mm | - | - | - |
| 1777909481 | 28.33° C | 45% | 1016.9 hPa | 0 mm | - | - | - |
| 1777909174 | 27.78° C | 45% | 1016.8 hPa | 0 mm | - | - | - |
| 1777908881 | 27.78° C | 45% | 1016.8 hPa | 0 mm | - | - | - |
| 1777908567 | 27.78° C | 46% | 1016.8 hPa | 0 mm | - | - | - |
| 1777908280 | 27.78° C | 46% | 1016.7 hPa | 0 mm | - | - | - |
| 1777907968 | 27.78° C | 45% | 1016.9 hPa | 0 mm | - | - | - |
| 1777907665 | 27.78° C | 48% | 1016.8 hPa | 0 mm | - | - | - |
| 1777907373 | 27.78° C | 49% | 1016.8 hPa | 0 mm | - | - | - |
| 1777907088 | 27.22° C | 49% | 1016.8 hPa | 0 mm | - | - | - |
| 1777906775 | 27.22° C | 50% | 1016.7 hPa | 0 mm | - | - | - |
| 1777906464 | 27.22° C | 50% | 1016.7 hPa | 0 mm | - | - | - |
* Rain latest hour (hover to see other rain measurements)
** Current wind speed in m/s (hover to see current wind gust speed)